EWG9785 LHBP-EDDL

Flight info

Callsign EWG9785
Flight time N/A
Altitude 38000
Route GILEP2B GILEP DCT ZOLKU DCT BEGLA DCT DEXIT DCT RODIS DCT TESDU DCT AMETU T852 TINSA T854 DOMUX DOMUX1A
Aircraft A20N/M-SDE2E3FGHIRWXY/LB1

Departure

Time N/A
Airport Budapest Liszt Ferenc International Airport (LHBP)

Arrival

Time 2026-05-04 19:02
Airport Düsseldorf Airport (EDDL)
Time Latitude Longitude Altitude Speed Heading
2026-05-04 18:38 51.46598 8.12639 21515 ft 379 kts 323°
2026-05-04 18:38 51.48560 8.09924 20981 ft 369 kts 306°
2026-05-04 18:39 51.49836 8.06435 20452 ft 359 kts 287°
2026-05-04 18:39 51.50317 8.02606 19953 ft 354 kts 268°
2026-05-04 18:39 51.50000 7.98566 19418 ft 376 kts 252°
2026-05-04 18:39 51.49284 7.94462 18878 ft 385 kts 252°
2026-05-04 18:40 51.48680 7.90336 18540 ft 377 kts 262°
2026-05-04 18:40 51.48851 7.86197 18449 ft 369 kts 281°
2026-05-04 18:40 51.49446 7.83614 18451 ft 380 kts 294°
2026-05-04 18:40 51.51674 7.79188 18456 ft 390 kts 319°
2026-05-04 18:41 51.54045 7.77015 18452 ft 396 kts 338°
2026-05-04 18:41 51.55853 7.76263 18467 ft 399 kts 350°
2026-05-04 18:41 51.58582 7.75803 18471 ft 397 kts 353°
2026-05-04 18:41 51.61343 7.75381 18470 ft 398 kts 353°
2026-05-04 18:42 51.64103 7.74960 18470 ft 398 kts 353°
2026-05-04 18:42 51.66857 7.74539 18479 ft 398 kts 353°
2026-05-04 18:42 51.69608 7.74118 18472 ft 398 kts 353°
2026-05-04 18:42 51.72379 7.73693 18482 ft 398 kts 353°
2026-05-04 18:43 51.75132 7.73270 18475 ft 398 kts 353°
2026-05-04 18:43 51.77862 7.72852 18476 ft 398 kts 353°
2026-05-04 18:43 51.80621 7.72429 18491 ft 397 kts 353°
2026-05-04 18:43 51.83366 7.71998 18491 ft 397 kts 353°
2026-05-04 18:44 51.86120 7.71565 18489 ft 397 kts 353°
2026-05-04 18:44 51.87942 7.71277 18487 ft 397 kts 353°
2026-05-04 18:44 51.91585 7.70459 18482 ft 395 kts 342°
2026-05-04 18:44 51.94075 7.68639 18389 ft 392 kts 324°
2026-05-04 18:45 51.96109 7.65747 18040 ft 386 kts 307°
2026-05-04 18:45 51.97458 7.62117 17641 ft 377 kts 289°
2026-05-04 18:45 51.98025 7.58031 17247 ft 369 kts 270°
2026-05-04 18:45 51.97747 7.53955 16858 ft 363 kts 252°
2026-05-04 18:46 51.96793 7.50200 16487 ft 359 kts 238°
2026-05-04 18:46 51.95326 7.46951 15997 ft 357 kts 225°
2026-05-04 18:46 51.93418 7.44398 15379 ft 355 kts 212°
2026-05-04 18:46 51.91345 7.42225 14768 ft 353 kts 212°
2026-05-04 18:47 51.89294 7.40051 14223 ft 350 kts 213°
2026-05-04 18:47 51.87304 7.37925 14032 ft 346 kts 213°
2026-05-04 18:47 51.85278 7.35758 13964 ft 350 kts 213°
2026-05-04 18:47 51.83251 7.33589 13971 ft 349 kts 213°
2026-05-04 18:48 51.81223 7.31420 13960 ft 348 kts 213°
2026-05-04 18:48 51.79215 7.29273 13975 ft 343 kts 212°
2026-05-04 18:48 51.77222 7.27144 13933 ft 340 kts 212°
2026-05-04 18:48 51.75296 7.25090 13859 ft 331 kts 212°
2026-05-04 18:49 51.73391 7.23061 13634 ft 328 kts 212°
2026-05-04 18:49 51.71542 7.20874 13189 ft 330 kts 223°
2026-05-04 18:49 51.70117 7.17970 12667 ft 330 kts 239°
2026-05-04 18:49 51.69206 7.14582 12152 ft 329 kts 245°
2026-05-04 18:50 51.68107 7.11370 11659 ft 325 kts 235°
2026-05-04 18:50 51.66799 7.08453 11393 ft 315 kts 232°
2026-05-04 18:50 51.65472 7.05714 11191 ft 304 kts 231°
2026-05-04 18:50 51.64184 7.03077 10986 ft 294 kts 231°
2026-05-04 18:51 51.62965 7.00550 10793 ft 285 kts 231°
2026-05-04 18:51 51.61775 6.98053 10566 ft 278 kts 232°
2026-05-04 18:51 51.60604 6.95579 10315 ft 271 kts 232°
2026-05-04 18:51 51.59491 6.93217 10078 ft 265 kts 231°
2026-05-04 18:52 51.58285 6.91040 9827 ft 257 kts 214°
2026-05-04 18:52 51.56671 6.89958 9491 ft 251 kts 186°
2026-05-04 18:52 51.54952 6.90290 9101 ft 251 kts 158°
2026-05-04 18:52 51.53509 6.91796 8714 ft 251 kts 143°
2026-05-04 18:53 51.52137 6.93528 8328 ft 251 kts 143°
2026-05-04 18:53 51.50857 6.95425 7945 ft 252 kts 126°
2026-05-04 18:53 51.50227 6.98039 7562 ft 256 kts 97°
2026-05-04 18:53 51.50479 7.00850 7200 ft 259 kts 68°
2026-05-04 18:54 51.51448 7.03302 6841 ft 261 kts 53°
2026-05-04 18:54 51.52594 7.05577 6475 ft 262 kts 51°
2026-05-04 18:54 51.53744 7.07814 6098 ft 262 kts 54°
2026-05-04 18:54 51.54478 7.10446 5710 ft 257 kts 83°
2026-05-04 18:55 51.54344 7.13255 5330 ft 251 kts 112°
2026-05-04 18:55 51.51902 7.16707 4581 ft 239 kts 172°
2026-05-04 18:55 51.50272 7.16482 4203 ft 237 kts 200°
2026-05-04 18:56 51.48741 7.15464 3835 ft 238 kts 203°
2026-05-04 18:56 51.47241 7.14431 3531 ft 236 kts 203°
2026-05-04 18:56 51.45874 7.13063 3266 ft 232 kts 230°
2026-05-04 18:56 51.45065 7.10853 3047 ft 228 kts 241°
2026-05-04 18:57 51.44281 7.08670 3007 ft 228 kts 236°
2026-05-04 18:57 51.43372 7.06592 3004 ft 226 kts 232°
2026-05-04 18:57 51.42416 7.04587 2994 ft 226 kts 232°
2026-05-04 18:57 51.41480 7.02596 3004 ft 226 kts 231°
2026-05-04 18:58 51.40531 7.00582 2986 ft 227 kts 232°
2026-05-04 18:58 51.39583 6.98573 2995 ft 221 kts 232°
2026-05-04 18:58 51.38688 6.96674 2992 ft 206 kts 231°
2026-05-04 18:58 51.37851 6.94902 2906 ft 191 kts 231°
2026-05-04 18:59 51.37063 6.93233 2601 ft 186 kts 231°
2026-05-04 18:59 51.36297 6.91612 2335 ft 179 kts 231°
2026-05-04 18:59 51.35560 6.90053 2083 ft 173 kts 231°
2026-05-04 18:59 51.34850 6.88547 1846 ft 168 kts 231°
2026-05-04 19:00 51.34174 6.87116 1621 ft 154 kts 231°
2026-05-04 19:00 51.33557 6.85794 1381 ft 143 kts 231°
2026-05-04 19:00 51.32987 6.84517 1201 ft 139 kts 230°
2026-05-04 19:00 51.32406 6.83296 1021 ft 137 kts 228°
2026-05-04 19:01 51.31809 6.82084 840 ft 140 kts 229°
2026-05-04 19:01 51.31224 6.80831 674 ft 140 kts 229°
2026-05-04 19:01 51.30624 6.79617 486 ft 139 kts 230°
2026-05-04 19:01 51.30035 6.78360 301 ft 142 kts 231°
2026-05-04 19:02 51.29450 6.77137 139 ft 135 kts 231°
2026-05-04 19:02 51.28972 6.76135 136 ft 86 kts 232°
2026-05-04 19:02 51.28694 6.75703 134 ft 27 kts 201°
2026-05-04 19:02 51.28587 6.75686 136 ft 15 kts 173°
2026-05-04 19:03 51.28501 6.75731 136 ft 5 kts 145°
2026-05-04 19:03 51.28501 6.75732 136 ft 0 kts 145°
2026-05-04 19:04 51.28499 6.75734 136 ft 2 kts 145°
2026-05-04 19:04 51.28478 6.75757 136 ft 6 kts 145°
2026-05-04 19:04 51.28451 6.75789 136 ft 0 kts 143°
2026-05-04 19:07 51.28434 6.75810 136 ft 6 kts 143°
2026-05-04 19:07 51.28398 6.75853 135 ft 0 kts 143°
2026-05-04 19:09 51.28390 6.75863 135 ft 5 kts 143°
2026-05-04 19:10 51.28334 6.75931 132 ft 14 kts 143°
2026-05-04 19:10 51.28262 6.75992 135 ft 10 kts 181°
2026-05-04 19:10 51.28207 6.75958 136 ft 8 kts 204°
2026-05-04 19:10 51.28146 6.75914 136 ft 11 kts 204°
2026-05-04 19:11 51.28068 6.75856 136 ft 13 kts 205°
2026-05-04 19:11 51.28009 6.75828 136 ft 8 kts 183°
2026-05-04 19:11 51.27961 6.75832 137 ft 5 kts 144°
2026-05-04 19:11 51.27955 6.75898 137 ft 8 kts 88°
2026-05-04 19:12 51.27954 6.75929 137 ft 0 kts 91°